Regional Weather Roundup
Issued by NWS

Home | Current Version | Previous Version | Graphics & Text | Print | Product List | Glossary On
Versions: 1 2 3 4 5 6 7 8 9 10 11 12 13 14 15 16 17 18 19 20 21 22 23 24 25 26 27 28 29 30 31 32 33 34 35 36 37 38 39 40 41 42 43 44 45 46 47 48 49 50
000
ASUS45 KABQ 290701
RWRNM
NEW MEXICO REGIONAL WEATHER ROUNDUP
NATIONAL WEATHER SERVICE ALBUQUERQUE NM
100 AM MDT SAT AUG 29 2015

NOTE: "FAIR" MEANS FEW OR NO CLOUDS BELOW 12,000 FEET AGL WITH NO
       SIGNIFICANT WEATHER OR OBSTRUCTIONS TO VISION.

      THIS PRODUCT IS RELEASED AS TWO VERSIONS.  ONE VERSION NEAR
      THE TOP OF THE HOUR CONTAINING PRELIMINARY DATA FROM ALBUQUERQUE
      AND OTHER STATIONS.  A FINAL VERSION WITH ADDITIONAL DATA IS
      ISSUED ABOUT 10 MINUTES AFTER THE HOUR.

NMZ501-503-504-510>518-290800-
NORTHWEST PLATEAU/NORTHCENTRAL MOUNTAINS

CITY           SKY/WX    TMP DP  RH WIND       PRES   REMARKS
FARMINGTON     CLEAR     62  39  42 N7        30.19R
LOS ALAMOS     MOCLDY    65  46  50 SW10G20   30.40R
SANTA FE       PTCLDY    64  49  57 S15       30.33R
TAOS           MOCLDY    61  39  44 SE8       30.40S
ANGEL FIRE     FAIR      43  42  97 CALM      30.52S

$$
NMZ402-403-502-505>509-290800-
WESTCENTRAL MOUNTAINS/SOUTHWEST MOUNTAINS

CITY           SKY/WX    TMP DP  RH WIND       PRES   REMARKS
GALLUP         PTCLDY    52  45  77 CALM      30.30R
GRANTS         CLEAR     57  50  78 SE7       30.34R
SILVER CITY      N/A     73  54  49 E12G17    30.23S

$$
NMZ407-409-411-412-290800-
SOUTHERN DESERTS

CITY           SKY/WX    TMP DP  RH WIND       PRES   REMARKS
DEMING         CLEAR     74  56  53 NE6       30.13R
LAS CRUCES     PTCLDY    70  58  65 S5        30.16S
HOLLOMAN AFB   MOCLDY    73  59  61 NE5       30.16R
ALAMOGORDO     PTCLDY    72  57  60 NE8       30.18R
T OR C         CLOUDY    71  55  56 S8        30.18S

$$
NMZ519>523-290800-
CENTRAL VALLEYS/CENTRAL HIGHLANDS

CITY           SKY/WX    TMP DP  RH WIND       PRES   REMARKS
ALBUQUERQUE    MOCLDY    72  49  44 SE13      30.28R
DOUBLE EAGLE   MOCLDY    69  50  50 SE14      30.31S
MORIARTY ARPT  FAIR      58  52  79 CALM      30.37R
CLINES CORNERS PTCLDY    57  52  83 E7        30.38R
BELEN          FAIR      71  52  50 W5        30.26R
SOCORRO        MOCLDY    72  53  50 N5        30.25R

$$
NMZ524>526-539-540-290800-
SOUTHCENTRAL MOUNTAINS

CITY           SKY/WX    TMP DP  RH WIND       PRES   REMARKS
RUIDOSO        CLOUDY    57  55  94 MISG      30.41R

$$
NMZ527>531-290800-
NORTHEAST HIGHLANDS/NORTHEAST PLAINS

CITY           SKY/WX    TMP DP  RH WIND       PRES   REMARKS
LAS VEGAS      MOCLDY    55  49  80 NW5       30.40R
RATON          PTCLDY    57  49  74 N3        30.35R
CLAYTON        PTCLDY    66  55  67 W8        30.23F

$$
NMZ532>537-290800-
EASTCENTRAL PLAINS

CITY           SKY/WX    TMP DP  RH WIND       PRES   REMARKS
TUCUMCARI      MOCLDY    70  59  68 NW10      30.17S
CANNON AFB     CLOUDY    68  62  83 SE6       30.19S
CLOVIS AIRPORT CLOUDY    68  61  77 S9        30.19F

$$
NMZ028-029-538-290800-
SOUTHEAST PLAINS

CITY           SKY/WX    TMP DP  RH WIND       PRES   REMARKS
ROSWELL        LGT RAIN  68  64  87 NE8       30.21R
ARTESIA        CLOUDY    68  68 100 N10       30.21S
CARLSBAD       CLOUDY    76  61  59 E6        30.14R


$$


USA.gov is the U.S. government's official web portal to all federal, state and local government web resources and services.